Notices

What's New in latest Release from April 7th, 2021:

- Updated Glossary, including Speed of Maximum Gust, and Total Hourly Precipitation

- Updated national and regional climate services offices contacts and prices information

- Addition of station inventory lists for 1981-2010, 1971-2000, and 1961-1990 Normals.

If you haven't already, please take our survey and provide feedback about our website: https://eccc.sondage-survey.ca/f/LanguageSelection.aspx?s=442ca660-fcf1-47c0-95a9-59707d6fd709

Hourly Data Report for January 30, 2006

TORONTO CITY
ONTARIO

43°40'00.000" N
79°24'00.000" W
112.50 m
6158355
71508
XTO

Download Data

Hourly Data (January 2006)
Hourly Data Report for January 30, 2006
TIME
LST
Temp Definition
°C
Dew Point Definition
°C
Rel Hum Definition
%
Precip. Amount Definition
mm

Wind Dir Definition
10's deg

Wind Spd Definition
km/h
Visibility Definition
km
Stn Press Definition
kPa
Hmdx Definition


Wind Chill Definition


Weather Definition


00:00 6.9 6.6 98   LegendMM LegendMM   98.47     LegendNANA
01:00 7.1 6.7 97   LegendMM LegendMM   98.50     LegendNANA
02:00 6.8 6.0 95   LegendMM LegendMM   98.55     LegendNANA
03:00 6.9 6.0 94   LegendMM LegendMM   98.61     LegendNANA
04:00 6.7 5.5 92   LegendMM LegendMM   98.68     LegendNANA
05:00 6.6 5.4 92   LegendMM LegendMM   98.76     LegendNANA
06:00 6.8 5.5 91   LegendMM LegendMM   98.81     LegendNANA
07:00 6.5 5.2 91   LegendMM LegendMM   98.83     LegendNANA
08:00 5.7 4.4 91   LegendMM LegendMM   98.91     LegendNANA
09:00 5.7 4.4 91   LegendMM LegendMM   99.00     LegendNANA
10:00 5.7 4.1 89   LegendMM LegendMM   99.00     LegendNANA
11:00 6.4 5.1 91   LegendMM LegendMM   99.02     LegendNANA
12:00 7.6 5.1 84   LegendMM LegendMM   99.00     LegendNANA
13:00 8.2 4.7 79   LegendMM LegendMM   98.97     LegendNANA
14:00 7.0 3.9 81   LegendMM LegendMM   98.99     LegendNANA
15:00 7.9 3.3 73   LegendMM LegendMM   98.98     LegendNANA
16:00 7.5 2.5 71   LegendMM LegendMM   98.98     LegendNANA
17:00 6.8 2.6 75   LegendMM LegendMM   99.02     LegendNANA
18:00 6.5 2.4 75   LegendMM LegendMM   99.02     LegendNANA
19:00 7.1 2.6 73   LegendMM LegendMM   99.03     LegendNANA
20:00 5.6 2.6 81   LegendMM LegendMM   99.03     LegendNANA
21:00 5.8 3.0 82   LegendMM LegendMM   99.05     LegendNANA
22:00 5.0 3.5 90   LegendMM LegendMM   99.07     LegendNANA
23:00 4.3 3.3 93   LegendMM LegendMM   99.10     LegendNANA

Notes on Data Quality.

Legend

  • E = Estimated
  • M = Missing
  • NA = Not Available*
  • [empty] = Indicates an unobserved value
Date modified: